This demonstration page uses our WeatherBlox Daily Observations layout. Learn more.

Left ArrowRight Arrow

31.84235, -102.49876

Hourly Observations for November 10, 2015

Temp ( °F °C ) Dew Point ( °F °C ) Humidity (%) Winds ( mph kmh ) Pressure ( in mb ) Visibility ( mi km ) Precip ( " mm )
12:53 am 00:53 Clear with Mist and Fog 55 12.8 52 11.1 90 90 S 8 13 29.95 1014 5 8 0.00 0.00
1:36 am 01:36 Partly Cloudy with Mist and Fog 55 12.8 52 11.1 90 90 S 9 15 30.00 1016 4 6 0.00 0.00
1:50 am 01:50 Mostly Cloudy with Mist and Fog 55 13 52 11 88 88 SSW 10 17 30.03 1017 4 6 0.00 0.00
1:53 am 01:53 Mostly Cloudy with Mist and Fog 55 12.8 52 11.1 90 90 SSW 8 13 29.95 1014 4 6 0.00 0.00
2:06 am 02:06 Cloudy with Mist and Fog 55 12.8 52 11.1 90 90 SSW 9 15 30.00 1016 4 6 0.00 0.00
2:38 am 02:38 Cloudy with Mist and Fog 54 12.2 53 11.7 97 97 S 9 15 30.00 1016 2 3 0.00 0.00
2:46 am 02:46 Cloudy with Mist and Fog 54 12.2 53 11.7 97 97 SSW 12 19 30.00 1016 1 2 0.00 0.00
2:53 am 02:53 Cloudy with Mist and Fog 54 12.2 53 11.7 97 97 SSW 10 17 29.94 1014 1 1 0.00 0.00
3:11 am 03:11 Mostly Cloudy with Fog 54 12.2 53 11.7 97 97 SSW 9 15 30.00 1016 0 0 0.00 0.00
3:53 am 03:53 Mostly Cloudy with Fog 54 12.2 53 11.7 97 97 S 8 13 29.93 1014 0 0 0.00 0.00
4:53 am 04:53 Mostly Cloudy with Fog 54 12.2 52 11.1 93 93 S 6 9 29.93 1013 1 1 0.00 0.00
5:06 am 05:06 Cloudy with Mist and Fog 53 11.7 52 11.1 96 96 S 10 17 30.00 1016 2 3 0.00 0.00
5:15 am 05:15 Cloudy with Mist and Fog 53 11.7 52 11.1 96 96 S 8 13 30.00 1016 4 6 0.00 0.00
5:27 am 05:27 Cloudy with Mist and Fog 53 11.7 51 10.6 93 93 S 10 17 30.00 1016 2 3 0.00 0.00
5:37 am 05:37 Cloudy with Fog 52 11.1 51 10.6 97 97 S 10 17 30.00 1016 0 0 0.00 0.00
5:53 am 05:53 Mostly Cloudy with Fog 53 11.7 52 11.1 96 96 S 10 17 29.95 1014 0 0 0.00 0.00
6:18 am 06:18 Mostly Cloudy with Fog 54 12.2 53 11.7 97 97 S 12 19 30.00 1016 1 1 0.00 0.00
6:48 am 06:48 Cloudy with Mist and Fog 54 12 54 12 100 100 S 9 15 30.00 1016 1 2 0.00 0.00
6:53 am 06:53 Cloudy with Mist and Fog 55 12.8 53 11.7 93 93 S 10 17 29.96 1014 1 2 0.00 0.00
7:11 am 07:11 Cloudy with Mist and Fog 55 12.8 53 11.7 93 93 S 8 13 30.00 1016 3 4 0.00 0.00
7:53 am 07:53 Cloudy with Mist and Fog 55 12.8 53 11.7 93 93 S 9 15 29.97 1015 3 4 0.00 0.00
8:00 am 08:00 Cloudy with Mist and Fog 55 12.8 53 11.7 93 93 S 13 20 30.03 1017 3 5 0.00 0.00
8:53 am 08:53 Cloudy with Mist and Fog 57 13.9 54 12.2 90 90 S 12 19 29.98 1015 6 10 0.00 0.00
9:00 am 09:00 Cloudy 57 13.9 54 12.2 90 90 S 9 15 30.00 1016 7 11 0.00 0.00
9:53 am 09:53 Cloudy 59 15 54 12.2 83 83 SSW 7 11 30.00 1016 8 13 0.00 0.00
10:31 am 10:31 Partly Cloudy 61 16.1 54 12.2 78 78 S 8 13 30.00 1016 8 13 0.00 0.00
10:53 am 10:53 Mostly Cloudy 62 16.7 54 12.2 75 75 S 8 13 29.98 1015 9 14 0.00 0.00
11:34 am 11:34 Partly Cloudy 63 17.2 55 12.8 76 76 SW 10 17 29.97 1015 10 16 0.00 0.00
11:53 am 11:53 Sunny 64 17.8 55 12.8 73 73 S 9 15 29.96 1015 10 16 0.00 0.00
12:53 pm 12:53 Sunny 70 21.1 54 12.2 57 57 SSW 12 19 29.90 1013 10 16 0.00 0.00
1:53 pm 13:53 Sunny 73 22.8 53 11.7 50 50 SW 10 17 29.86 1011 10 16 0.00 0.00
2:53 pm 14:53 Sunny 73 22.8 52 11.1 48 48 S 12 19 29.84 1010 10 16 0.00 0.00
3:53 pm 15:53 Sunny 73 22.8 50 10 44 44 S 12 19 29.82 1010 10 16 0.00 0.00
4:53 pm 16:53 Sunny 72 22.2 52 11.1 50 50 S 12 19 29.81 1010 10 16 0.00 0.00
5:53 pm 17:53 Sunny 68 20 54 12.2 61 61 S 8 13 29.83 1010 10 16 0.00 0.00
6:53 pm 18:53 Clear 66 18.9 56 13.3 70 70 S 12 19 29.83 1010 10 16 0.00 0.00
7:53 pm 19:53 Clear 64 17.8 55 12.8 73 73 S 13 20 29.84 1010 10 16 0.00 0.00
8:53 pm 20:53 Clear 63 17.2 56 13.3 78 78 S 13 20 29.83 1010 10 16 0.00 0.00
9:53 pm 21:53 Clear 61 16.1 56 13.3 84 84 S 10 17 29.81 1010 10 16 0.00 0.00
10:53 pm 22:53 Clear 60 15.6 56 13.3 86 86 S 13 20 29.80 1009 9 14 0.00 0.00
11:53 pm 23:53 Mostly Clear with Mist and Fog 59 15 56 13.3 90 90 S 14 22 29.79 1009 6 10 0.00 0.00

Powered by AerisWeather